Weather History for Bethel, AK

Change the Weather History Date:

Friday, September 28, 2012

  Actual Average Record
Temperature  
Mean Temperature 34 °F 40 °F  
Max Temperature 38 °F 46 °F 58 °F (1966)
Min Temperature 29 °F 34 °F 18 °F (1970)
Degree Days  
Heating Degree Days 31 25  
Month to date heating degree days 605 532  
Since 1 July heating degree days 1376 1174  
Cooling Degree Days 0    
Month to date cooling degree days 0  
Year to date cooling degree days 0  
Moisture  
Dew Point 27 °F    
Average Humidity 0    
Maximum Humidity 0    
Minimum Humidity 0    
Precipitation  
Precipitation T in 0.08 in 1.97 in (1971)
Month to date precipitation 3.63 2.59  
Year to date precipitation 16.80 14.01  
Snow  
Snow T in 0.10 in 0.10 in (2004)
Month to date snowfall T 0.5  
Since 1 July snowfall T 0.5  
Since 1 September snowfall T 0.5  
Snow Depth 0.00 in    
Sea Level Pressure  
Sea Level Pressure 29.55 in    
Wind  
Wind Speed 13 mph (WNW)    
Max Wind Speed 22 mph    
Max Gust Speed 28 mph    
Visibility 9 miles    
Events Snow    
T = Trace of Precipitation, MM = Missing Value Source: NWS Daily Summary

Daily Weather History Graph

Daily Weather History Graph

Search for Another Location

Airport:

Trip Planner

Search our weather history database for the weather conditions in past years. The results will help you decide how hot, cold, wet, or windy it might be!

Date:

Astronomy

Sep. 28, 2012 Rise Set
Actual Time 8:47 AM AKDT 8:26 PM AKDT
Civil Twilight 8:05 AM AKDT 9:08 PM AKDT
Nautical Twilight 7:15 AM AKDT 9:58 PM AKDT
Astronomical Twilight 6:21 AM AKDT 10:51 PM AKDT
Moon 7:33 PM AKDT (9/28) 7:22 AM AKDT (9/28)
Length of Visible Light 13h 03m
Length of Day
11h 38m
Waxing Gibbous, 98% of the Moon is Illuminated
Sep 28
Waxing Gibbous
Sep 29
Full
Oct 7
Last Quarter
Oct 15
New
Oct 21
First Quarter

Hourly Weather History & Observations

Time (AKDT) Temp. Windchill Dew Point Humidity Pressure Visibility Wind Dir Wind Speed Gust Speed Precip Events Conditions
12:53 AM 33.1 °F 21.5 °F 27.0 °F 78% 29.50 in 10.0 mi NW 19.6 mph 32.2 mph N/A   Mostly Cloudy
1:53 AM 32.0 °F 20.5 °F 26.1 °F 79% 29.50 in 10.0 mi NW 18.4 mph 27.6 mph N/A   Scattered Clouds
2:53 AM 30.9 °F 19.4 °F 26.1 °F 82% 29.52 in 10.0 mi NW 17.3 mph 26.5 mph N/A   Mostly Cloudy
3:53 AM 30.0 °F 18.7 °F 26.1 °F 85% 29.52 in 10.0 mi WNW 16.1 mph 24.2 mph N/A   Mostly Cloudy
4:53 AM 30.0 °F 19.1 °F 27.0 °F 88% 29.53 in 10.0 mi WNW 15.0 mph - N/A   Mostly Cloudy
5:53 AM 30.9 °F 20.7 °F 28.0 °F 89% 29.54 in 10.0 mi WNW 13.8 mph 23.0 mph N/A   Overcast
6:53 AM 30.0 °F 19.1 °F 27.0 °F 88% 29.54 in 10.0 mi WNW 15.0 mph - N/A   Overcast
7:53 AM 28.9 °F 18.6 °F 26.1 °F 89% 29.54 in 10.0 mi WNW 12.7 mph - N/A   Mostly Cloudy
8:53 AM 28.9 °F 18.6 °F 27.0 °F 92% 29.55 in 10.0 mi WNW 12.7 mph - N/A   Mostly Cloudy
9:53 AM 30.9 °F 21.7 °F 28.0 °F 89% 29.56 in 10.0 mi WNW 11.5 mph - N/A   Mostly Cloudy
10:53 AM 30.9 °F 20.7 °F 27.0 °F 85% 29.57 in 10.0 mi WNW 13.8 mph - N/A   Scattered Clouds
11:53 AM 33.1 °F 22.6 °F 27.0 °F 78% 29.57 in 10.0 mi WNW 16.1 mph - N/A   Mostly Cloudy
12:53 PM 35.1 °F 24.8 °F 28.0 °F 76% 29.56 in 10.0 mi NW 17.3 mph 21.9 mph N/A   Mostly Cloudy
1:53 PM 37.0 °F 27.0 °F 27.0 °F 67% 29.55 in 10.0 mi WNW 18.4 mph 23.0 mph N/A   Mostly Cloudy
2:53 PM 36.0 °F 28.5 °F 28.0 °F 73% 29.55 in 7.0 mi WNW 10.4 mph 21.9 mph 0.00 in   Mostly Cloudy
3:00 PM 37.4 °F 29.3 °F 26.6 °F 65% 29.54 in 8.0 mi WNW 12.7 mph - N/A   Mostly Cloudy
3:07 PM 37.4 °F 27.5 °F 28.4 °F 70% 29.54 in 1.0 mi WNW 18.4 mph 21.9 mph N/A   Haze
3:17 PM 35.6 °F 27.5 °F 28.4 °F 75% 29.54 in 4.0 mi NW 11.5 mph - 0.00 in Snow Light Snow
3:53 PM 35.1 °F 25.5 °F 28.9 °F 78% 29.54 in 6.0 mi WNW 15.0 mph 25.3 mph 0.00 in Snow Light Snow
4:53 PM 37.0 °F 28.9 °F 26.1 °F 65% 29.54 in 10.0 mi WNW 12.7 mph 20.7 mph 0.00 in   Mostly Cloudy
5:53 PM 37.0 °F 30.4 °F 27.0 °F 67% 29.54 in 10.0 mi NW 9.2 mph - N/A   Mostly Cloudy
6:53 PM 34.0 °F 23.4 °F 27.0 °F 75% 29.54 in 10.0 mi NNW 17.3 mph - N/A   Mostly Cloudy
7:53 PM 34.0 °F 27.2 °F 26.1 °F 73% 29.55 in 10.0 mi West 8.1 mph - N/A   Overcast
8:53 PM 32.0 °F 24.8 °F 27.0 °F 82% 29.56 in 10.0 mi WNW 8.1 mph - N/A   Clear
9:53 PM 30.9 °F 24.3 °F 27.0 °F 85% 29.57 in 10.0 mi WNW 6.9 mph - N/A   Clear
10:53 PM 28.9 °F 21.1 °F 27.0 °F 92% 29.58 in 10.0 mi WNW 8.1 mph - N/A   Clear
11:53 PM 28.9 °F 21.1 °F 27.0 °F 92% 29.59 in 10.0 mi West 8.1 mph - N/A   Clear